Regional Weather Roundup
Issued by NWS

Home | Current Version | Previous Version | Graphics & Text | Print | Product List | Glossary On
Versions: 1 2 3 4 5 6 7 8 9 10 11 12 13 14 15 16 17 18 19 20 21 22 23 24 25 26 27 28 29 30 31 32 33 34 35 36 37 38 39 40 41 42 43 44 45 46 47 48 49 50
000
ASUS43 KMKX 280011
RWRWI

WISCONSIN REGIONAL WEATHER ROUNDUP
NATIONAL WEATHER SERVICE MILWAUKEE/SULLIVAN WI
700 PM CDT SUN JUL 27 2014

NOTE: "FAIR" INDICATES FEW OR NO CLOUDS BELOW 12,000 FEET WITH NO
SIGNIFICANT WEATHER AND/OR OBSTRUCTIONS TO VISIBILITY.

WIZ001-002-006>008-014>016-023>028-280100-
NORTHWEST WISCONSIN

CITY           SKY/WX    TMP DP  RH WIND       PRES   REMARKS
SUPERIOR ARPT  CLOUDY    61  55  80 W5        30.06S
6HR MIN TEMP:  56; 6HR MAX TEMP:  62;

ASHLAND        MOSUNNY   62  52  69 CALM      30.05R
6HR MIN TEMP:  56; 6HR MAX TEMP:  63; 6HR PCP:  0.01;

HAYWARD        CLOUDY    63  53  70 N8        30.05R
6HR MIN TEMP:  59; 6HR MAX TEMP:  64; 6HR PCP:  0.01;

SIREN          CLOUDY    64  55  72 E5        30.06R
6HR MIN TEMP:  64; 6HR MAX TEMP:  72;

RICE LAKE      MOSUNNY   65  53  65 N14G21    30.04S
6HR MIN TEMP:  64; 6HR MAX TEMP:  73;

LADYSMITH      MOSUNNY   64  53  67 N12G18    30.03R
6HR MIN TEMP:  62; 6HR MAX TEMP:  70;

EAU CLAIRE     PTSUNNY   68  56  65 N16G23    29.98R
6HR MIN TEMP:  68; 6HR MAX TEMP:  77; 6HR PCP: TRACE;

MENOMONIE      CLEAR     69  55  62 N17G24    30.00R
6HR MIN TEMP:  69; 6HR MAX TEMP:  77;

NEW RICHMOND   SUNNY     67  55  64 N12G22    30.04R
6HR MIN TEMP:  66; 6HR MAX TEMP:  74;

OSCEOLA        PTSUNNY   67  58  73 NE10      30.06R
$$

WIZ003>005-009-010-017-018-280100-
NORTH CENTRAL WISCONSIN

CITY           SKY/WX    TMP DP  RH WIND       PRES   REMARKS
WOODRUFF       SUNNY     62  52  70 N16       30.00R
6HR MIN TEMP:  59; 6HR MAX TEMP:  69;

RHINELANDER    MOSUNNY   60  51  72 N10       29.98R
6HR MIN TEMP:  59; 6HR MAX TEMP:  67; 6HR PCP:  0.08;

EAGLE RIVER    PTSUNNY   62  49  62 N13G18    29.97R
6HR MIN TEMP:  58; 6HR MAX TEMP:  67; 6HR PCP:  0.05;

LAND O LAKES   MOSUNNY   62  51  68 N10G20    29.99R
6HR MIN TEMP:  58; 6HR MAX TEMP:  66;

PHILLIPS       CLOUDY    61  51  69 N14G20    30.00R
6HR MIN TEMP:  59; 6HR MAX TEMP:  66;

TOMAHAWK       PTSUNNY   59  53  79 N7        29.99R
6HR MIN TEMP:  59; 6HR MAX TEMP:  69; 6HR PCP:  0.01;

MEDFORD        CLOUDY    62  56  81 N13       29.97R
6HR MIN TEMP:  62; 6HR MAX TEMP:  70; 6HR PCP:  0.02;

MERRILL        CLOUDY    62  55  80 N16G23    29.96R
6HR MIN TEMP:  62; 6HR MAX TEMP:  72; 6HR PCP:  0.07;

$$

WIZ029-030-035-036-043>047-280100-
CENTRAL WISCONSIN

CITY           SKY/WX    TMP DP  RH WIND       PRES   REMARKS
WAUSAU         CLOUDY    64  55  72 N16G25    29.92R
6HR MIN TEMP:  62; 6HR MAX TEMP:  74; 6HR PCP:  0.35;

MOSINEE        PTSUNNY   64  59  82 N14G23    29.93R
MARSHFIELD     PTSUNNY   68  59  73 N13G22    29.93R
6HR MIN TEMP:  67; 6HR MAX TEMP:  76; 6HR PCP:  0.01;

STEVENS POINT  CLOUDY    64  58  83 NE15G21   29.91R
6HR MIN TEMP:  62; 6HR MAX TEMP:  73; 6HR PCP:  0.07;

WAUPACA        PTSUNNY   68  62  83 N9        29.88R
6HR MIN TEMP:  67; 6HR MAX TEMP:  78; 6HR PCP:  0.12;

WAUTOMA        CLOUDY    70  60  70 N12G18    29.88R
6HR MIN TEMP:  69; 6HR MAX TEMP:  78; 6HR PCP: TRACE;

WISC RAPIDS    SUNNY     69  59  70 MISG      29.91R
6HR MIN TEMP:  64; 6HR MAX TEMP:  78; 6HR PCP:  0.07;

CAMP DOUGLAS   PTSUNNY   65  65  97 N8        29.91R
6HR MIN TEMP:  65; 6HR MAX TEMP:  76; 6HR PCP:  0.19;

$$

WIZ011>013-019>022-031-037>040-048>050-280100-
NORTHEAST WISCONSIN

CITY           SKY/WX    TMP DP  RH WIND       PRES   REMARKS
ANTIGO         PTSUNNY   61  54  77 N15G21    29.95R
6HR MIN TEMP:  61; 6HR MAX TEMP:  69;

STURGEON BAY   CLOUDY    63  52  67 N20G28    29.85R
6HR MIN TEMP:  61; 6HR MAX TEMP:  64; 6HR PCP:  0.33;

GREEN BAY      CLOUDY    67  57  70 N16       29.86R
6HR MIN TEMP:  66; 6HR MAX TEMP:  76; 6HR PCP: TRACE;

MANITOWOC      CLOUDY    64  59  83 N14G20    29.82R
6HR MIN TEMP:  63; 6HR MAX TEMP:  79; 6HR PCP:  0.10;

APPLETON       PTSUNNY   66  57  72 N21G31    29.86R
CLINTONVILLE   PTSUNNY   68  54  60 N16G23    29.88R
OSHKOSH        CLOUDY    68  60  75 N21       29.84R
6HR MIN TEMP:  65; 6HR MAX TEMP:  77; 6HR PCP:  0.04;

$$

WIZ032>034-041-042-053>061-280100-
SOUTHWEST WISCONSIN

CITY           SKY/WX    TMP DP  RH WIND       PRES   REMARKS
LA CROSSE      MOSUNNY   76  60  57 NW15      29.91R
6HR MIN TEMP:  70; 6HR MAX TEMP:  79; 6HR PCP: TRACE;

SPARTA         MOSUNNY   70  59  67 N8        29.92R
6HR MIN TEMP:  67; 6HR MAX TEMP:  75; 6HR PCP:  0.07;

VIROQUA        FAIR      71  61  70 NW15      29.93R
6HR MIN TEMP:  67; 6HR MAX TEMP:  73;

BOSCOBEL       MOSUNNY   77  59  53 NW10      29.90R
6HR MIN TEMP:  70; 6HR MAX TEMP:  81; 6HR PCP: TRACE;

PRAIRIE DU CHI MOSUNNY   74  57  54 NW10      29.91R
6HR MIN TEMP:  74; 6HR MAX TEMP:  78;

PLATTEVILLE    FAIR      73  58  59 NW13G18   29.91R
6HR MIN TEMP:  71; 6HR MAX TEMP:  76;

$$

WIZ056-057-062-063-064-067-068-280100-
SOUTH CENTRAL WISCONSIN

CITY           SKY/WX    TMP DP  RH WIND       PRES   REMARKS
BARABOO/DELLS  PTSUNNY   68  61  76 NW7       29.88R
6HR MIN TEMP:  67; 6HR MAX TEMP:  77; 6HR PCP:  0.01;

LONE ROCK      PTSUNNY   75  60  59 NW14G23   29.89R
6HR MIN TEMP:  73; 6HR MAX TEMP:  80; 6HR PCP: TRACE;

WATERTOWN      PTSUNNY   72  60  67 NW13      29.82R
6HR MIN TEMP:  68; 6HR MAX TEMP:  78;

MADISON        MOSUNNY   71  61  70 N16G22    29.85R
6HR MIN TEMP:  65; 6HR MAX TEMP:  78; 6HR PCP:  0.03;

MIDDLETON      FAIR      71  61  69 NW16G22   29.86R
6HR MIN TEMP:  66; 6HR MAX TEMP:  78; 6HR PCP:  0.12;

MONROE         MOSUNNY   72  57  60 NW10G26   29.86R
JANESVILLE     MOSUNNY   73  59  60 NW17G24   29.83R
$$

WIZ051-052-058>065-066-070>072-280100-
SOUTHEAST WISCONSIN

CITY           SKY/WX    TMP DP  RH WIND       PRES   REMARKS
MILWAUKEE      PTSUNNY   71  61  70 NW10      29.80R
6HR MIN TEMP:  65; 6HR MAX TEMP:  83; 6HR PCP:  0.27;

WAUKESHA       NOT AVBL
MILWAUKEE/TIMM SUNNY     70  61  73 NW9       29.81R
RACINE         MOSUNNY   71  57  61 N13G21    29.81R
6HR MIN TEMP:  69; 6HR MAX TEMP:  83; 6HR PCP: TRACE;

BURLINGTON     MOSUNNY   69  58  67 NW14      29.81R
6HR MIN TEMP:  69; 6HR MAX TEMP:  78;

KENOSHA        PTSUNNY   74  58  57 NW9       29.79R
6HR MIN TEMP:  72; 6HR MAX TEMP:  84; 6HR PCP: TRACE;

FOND DU LAC    CLOUDY    69  59  70 N16G25    29.84R
6HR MIN TEMP:  66; 6HR MAX TEMP:  77; 6HR PCP:  0.09;

SHEBOYGAN      CLOUDY    66  60  81 N14G24    29.81R
6HR MIN TEMP:  62; 6HR MAX TEMP:  76; 6HR PCP:  0.15;

WEST BEND      MOSUNNY   66  59  77 NW8G18    29.82R
JUNEAU         PTSUNNY   68  57  68 N14G22    29.85R
6HR MIN TEMP:  64; 6HR MAX TEMP:  73; 6HR PCP:  0.05;

$$

LSZ147-162-280100-
LAKE SUPERIOR

STATION/POSITION TIME  TEMP    WIND        PRES    WAVE
                       AIR SEA DIR/SP/G            HT/PER
                 (UTC) (F)     (DEG/KT/KT) (MB)    (FT/S)
W MID LAKE BUOY  2350   49 43  290/  8/  8 1016.4R   1/ 4
PORT WING        2300   58     280/  8/  8 1017.3R
SAXON HARBOR     2300             CALM     1016.9R
$$

LMZ867-665-643>646-280100-
LAKE MICHIGAN

STATION/POSITION TIME  TEMP    WIND        PRES    WAVE
                       AIR SEA DIR/SP/G            HT/PER
                 (UTC) (F)     (DEG/KT/KT) (MB)    (FT/S)
N MID LAKE BUOY  2350   60 55  350/ 17/ 19 1008.5R   3/ 4
NORTHPORT PIER   2300   63     350/ 24/ 27 1009.8R
KEWAUNEE LAKESHO 2300   64     360/ 12/ 18 1009.9R
SHEBOYGAN LAKESH 0000   57     350/ 15/ 16 1009.8R
PORT WASHINGTON  2340           30/  7/ 16 1009.5R
ATWATER BUOY     0000   63      20/  6     1010.3R
MILWAUKEE LAKESH 2300   69     300/  8/ 12   N/A
S MID LAKE BUOY  2350   63 62  310/ 14/ 17 1008.1R   2/ 4
KENOSHA   LAKESH 0000   72     340/ 12/ 13 1008.5R
$$

TC  - TEMPERATURE IN CELSIUS
VSB - VISIBILITY IN STATUTE MILES
WCI - WIND CHILL INDEX
HX  - HEAT INDEX



USA.gov is the U.S. government's official web portal to all federal, state and local government web resources and services.